Weather History for Bad Axe, MI

Change the Weather History Date:

Wednesday, November 21, 2012

  Actual Average (KP58) Record (KP58)
Temperature  
Mean Temperature 42 °F -  
Max Temperature 56 °F 42 °F 55 °F (2003)
Min Temperature 28 °F 33 °F 25 °F (2008)
Degree Days  
Heating Degree Days 23    
Moisture  
Dew Point 37 °F    
Average Humidity 88    
Maximum Humidity 100    
Minimum Humidity 60    
Precipitation  
Precipitation 0.00 in - - ()
Sea Level Pressure  
Sea Level Pressure 30.17 in    
Wind  
Wind Speed 2 mph (SSW)    
Max Wind Speed 12 mph    
Max Gust Speed -    
Visibility 5 miles    
Events Fog    
Averages and records for this station are not official NWS values.
T = Trace of Precipitation, MM = Missing Value Source: NWS Daily Summary

Daily Weather History Graph

Daily Weather History Graph

Search for Another Location

Airport:

Trip Planner

Search our weather history database for the weather conditions in past years. The results will help you decide how hot, cold, wet, or windy it might be!

Date:

Astronomy

Nov. 21, 2012 Rise Set
Actual Time 7:34 AM EST 5:00 PM EST
Civil Twilight 7:03 AM EST 5:32 PM EST
Nautical Twilight 6:27 AM EST 6:07 PM EST
Astronomical Twilight 5:53 AM EST 6:41 PM EST
Moon 1:27 PM EST (11/21) 12:40 AM EST (11/21)
Length of Visible Light 10h 29m
Length of Day
9h 26m
First Quarter, 61% of the Moon is Illuminated
Nov 21
First Quarter
Nov 28
Full
Dec 6
Last Quarter
Dec 13
New
Dec 20
First Quarter

Hourly Weather History & Observations

Time (EST) Temp. Windchill Dew Point Humidity Pressure Visibility Wind Dir Wind Speed Gust Speed Precip Events Conditions
12:14 AM 36.5 °F - 35.2 °F 95% 30.15 in 0.8 mi Calm Calm - N/A   Mist
12:35 AM 35.4 °F - 34.3 °F 96% 30.15 in 0.2 mi Calm Calm - N/A Fog Fog
12:55 AM 32.4 °F - 32.0 °F 99% 30.15 in 0.2 mi Calm Calm - N/A Fog Fog
1:14 AM 32.0 °F - 31.5 °F 98% 30.16 in 0.2 mi Calm Calm - N/A Fog Fog
1:35 AM 32.0 °F - 31.5 °F 98% 30.16 in 0.2 mi Calm Calm - N/A Fog Fog
1:54 AM 31.1 °F - 30.6 °F 98% 30.16 in 0.2 mi Calm Calm - N/A Fog Light Freezing Fog
2:14 AM 30.2 °F - 29.7 °F 98% 30.16 in 0.2 mi Calm Calm - N/A Fog Light Freezing Fog
2:35 AM 29.8 °F - 29.5 °F 99% 30.17 in 0.2 mi Calm Calm - N/A Fog Light Freezing Fog
2:54 AM 30.9 °F - 30.7 °F 99% 30.17 in 0.2 mi Calm Calm - N/A Fog Light Freezing Fog
3:14 AM 31.8 °F - 31.8 °F 100% 30.18 in 0.5 mi Calm Calm - N/A Fog Fog
3:35 AM 29.7 °F - 29.3 °F 99% 30.18 in 0.8 mi Calm Calm - N/A   Overcast
3:54 AM 29.5 °F - 29.5 °F 100% 30.18 in 0.2 mi Calm Calm - N/A Fog Light Freezing Fog
4:15 AM 29.1 °F - 29.1 °F 100% 30.17 in 0.2 mi Calm Calm - N/A Fog Light Freezing Fog
4:35 AM 28.9 °F - 28.8 °F 99% 30.17 in 0.2 mi Calm Calm - N/A Fog Light Freezing Fog
4:54 AM 28.4 °F - 28.4 °F 100% 30.17 in 0.2 mi Calm Calm - N/A Fog Light Freezing Fog
5:15 AM 28.4 °F - 28.4 °F 100% 30.18 in 0.8 mi Calm Calm - N/A   Overcast
5:35 AM 28.8 °F - 28.6 °F 99% 30.18 in 2.0 mi Calm Calm - N/A   Mostly Cloudy
5:54 AM 28.6 °F - 28.4 °F 99% 30.18 in 2.5 mi Calm Calm - N/A   Mostly Cloudy
6:15 AM 28.4 °F - 28.4 °F 100% 30.19 in 2.5 mi Calm Calm - N/A   Scattered Clouds
6:35 AM 28.2 °F - 28.2 °F 100% 30.19 in 1.0 mi Calm Calm - N/A   Overcast
6:54 AM 28.4 °F - 28.2 °F 99% 30.19 in 0.2 mi Calm Calm - N/A Fog Light Freezing Fog
7:15 AM 28.4 °F - 28.4 °F 100% 30.19 in 0.5 mi Calm Calm - N/A Fog Light Freezing Fog
7:35 AM 28.0 °F - 27.9 °F 99% 30.20 in 1.5 mi Calm Calm - N/A   Mist
7:54 AM 29.3 °F - 29.3 °F 100% 30.20 in 0.2 mi Calm Calm - N/A Fog Light Freezing Fog
8:15 AM 29.1 °F - 28.9 °F 99% 30.21 in 1.5 mi Calm Calm - N/A   Scattered Clouds
8:35 AM 30.2 °F - 30.2 °F 100% 30.23 in 1.5 mi Calm Calm - N/A   Mist
8:54 AM 32.0 °F - 32.0 °F 100% 30.22 in 1.8 mi Calm Calm - N/A   Mist
9:15 AM 35.1 °F - 35.1 °F 100% 30.23 in 1.5 mi Calm Calm - N/A   Mist
9:34 AM 38.1 °F - 38.1 °F 100% 30.22 in 1.8 mi Calm Calm - N/A   Mist
9:55 AM 41.0 °F - 41.0 °F 100% 30.22 in 3.0 mi Calm Calm - N/A   Clear
10:15 AM 43.0 °F - 43.0 °F 100% 30.23 in 4.0 mi Calm Calm - N/A   Clear
10:34 AM 45.1 °F - 45.1 °F 100% 30.23 in 5.0 mi Calm Calm - N/A   Clear
10:55 AM 46.6 °F - 45.7 °F 97% 30.22 in 5.0 mi SW 3.5 mph - N/A   Clear
11:15 AM 47.7 °F - 45.9 °F 93% 30.22 in 5.0 mi SSW 5.8 mph - N/A   Clear
11:35 AM 49.5 °F - 45.9 °F 87% 30.21 in 5.0 mi SSW 5.8 mph - N/A   Clear
11:55 AM 51.6 °F - 43.7 °F 74% 30.21 in 7.0 mi SSW 8.1 mph - N/A   Clear
12:15 PM 52.7 °F - 43.5 °F 71% 30.20 in 7.0 mi SW 6.9 mph - N/A   Clear
12:35 PM 53.4 °F - 43.2 °F 68% 30.19 in 7.0 mi SW 5.8 mph - N/A   Clear
12:55 PM 54.0 °F - 42.4 °F 65% 30.18 in 10.0 mi SSW 6.9 mph - N/A   Clear
1:15 PM 54.5 °F - 42.3 °F 63% 30.17 in 10.0 mi SSW 8.1 mph - N/A   Clear
1:35 PM 55.8 °F - 42.6 °F 61% 30.18 in 10.0 mi WSW 9.2 mph - N/A   Clear
1:55 PM 55.6 °F - 42.1 °F 60% 30.18 in 10.0 mi WSW 9.2 mph - N/A   Clear
2:15 PM 55.8 °F - 42.1 °F 60% 30.17 in 10.0 mi SW 9.2 mph - N/A   Clear
2:35 PM 56.1 °F - 42.4 °F 60% 30.16 in 10.0 mi WSW 8.1 mph - N/A   Clear
2:55 PM 55.9 °F - 42.4 °F 61% 30.15 in 10.0 mi SW 6.9 mph - N/A   Clear
3:14 PM 55.8 °F - 42.3 °F 60% 30.14 in 10.0 mi SSW 9.2 mph - N/A   Clear
3:35 PM 55.2 °F - 41.9 °F 61% 30.14 in 10.0 mi SW 5.8 mph - N/A   Clear
3:55 PM 55.0 °F - 41.9 °F 61% 30.14 in 10.0 mi SW 5.8 mph - N/A   Clear
4:15 PM 53.8 °F - 41.7 °F 64% 30.14 in 10.0 mi SSW 5.8 mph - N/A   Clear
4:35 PM 52.7 °F - 41.4 °F 65% 30.15 in 10.0 mi SW 4.6 mph - N/A   Clear
4:55 PM 48.6 °F - 39.9 °F 72% 30.15 in 10.0 mi WSW 3.5 mph - N/A   Clear
5:15 PM 48.2 °F - 40.3 °F 74% 30.14 in 10.0 mi SSW 4.6 mph - N/A   Clear
5:35 PM 45.1 °F 42.8 °F 39.6 °F 81% 30.14 in 7.0 mi SSW 4.6 mph - N/A   Clear
5:55 PM 44.4 °F 42.9 °F 38.3 °F 79% 30.14 in 7.0 mi SW 3.5 mph - N/A   Clear
6:15 PM 42.6 °F - 38.8 °F 86% 30.15 in 7.0 mi Calm Calm - N/A   Clear
6:35 PM 41.9 °F 40.0 °F 37.9 °F 86% 30.14 in 7.0 mi South 3.5 mph - N/A   Clear
6:55 PM 39.4 °F - 35.8 °F 87% 30.15 in 7.0 mi Calm Calm - N/A   Clear
7:15 PM 41.2 °F 38.2 °F 38.1 °F 89% 30.14 in 7.0 mi SSW 4.6 mph - N/A   Clear
7:35 PM 41.7 °F 38.8 °F 38.3 °F 88% 30.14 in 7.0 mi SSE 4.6 mph - N/A   Clear
7:55 PM 41.2 °F 37.3 °F 37.4 °F 86% 30.14 in 7.0 mi South 5.8 mph - N/A   Clear
8:15 PM 42.8 °F 39.3 °F 38.8 °F 86% 30.13 in 7.0 mi SSE 5.8 mph - N/A   Clear
8:35 PM 41.4 °F 36.8 °F 37.8 °F 87% 30.13 in 7.0 mi South 6.9 mph - N/A   Clear
8:55 PM 41.0 °F 36.4 °F 37.8 °F 88% 30.13 in 5.0 mi South 6.9 mph - N/A   Clear
9:15 PM 40.1 °F 36.9 °F 37.8 °F 91% 30.13 in 5.0 mi South 4.6 mph - N/A   Clear
9:35 PM 40.8 °F 37.8 °F 38.5 °F 91% 30.13 in 5.0 mi South 4.6 mph - N/A   Clear
9:55 PM 39.7 °F 35.6 °F 37.6 °F 92% 30.13 in 5.0 mi South 5.8 mph - N/A   Clear
10:15 PM 39.6 °F 34.7 °F 37.2 °F 91% 30.13 in 5.0 mi SSW 6.9 mph - N/A   Clear
10:35 PM 41.9 °F 37.5 °F 39.6 °F 91% 30.12 in 7.0 mi SSW 6.9 mph - N/A   Clear
10:55 PM 43.0 °F 38.2 °F 39.9 °F 89% 30.12 in 7.0 mi SSW 8.1 mph - N/A   Clear
11:14 PM 42.8 °F 37.0 °F 39.6 °F 88% 30.11 in 5.0 mi SSW 10.4 mph - N/A   Clear
11:35 PM 42.8 °F 36.6 °F 39.9 °F 90% 30.11 in 7.0 mi SSW 11.5 mph - N/A   Clear
11:54 PM 43.3 °F 37.2 °F 40.3 °F 89% 30.11 in 7.0 mi SSW 11.5 mph - N/A   Clear